[[{"header":{"parameterUnit":"m.s-1","parameterCategory":1,"la1":30.2991,"la2":30.254,"lo1":-89.0895,"lo2":-89.0444,"dy":0.0017,"dx":0.0017,"nx":28,"ny":28,"refTime":"2024-06-12T21:00:00:Z","depth":0,"parameterNumber":2,"parameterNumberName":"U-component_of_WINDS"},"data":[0,0,0,0,0,0,0,0,0,0,0,0,0,0,0,0,0,0,0,0,0,0,0,0,0,0,0,0,0,0,0,0,0,0,0,0,0,0,0,0,0,0,0,0,0,0,0,0,0,0,0,0,0,0,0,0,0,0,-1.7206,-1.7206,0,-1.7186,-1.7186,-1.7186,-1.7135,-1.7134,-1.7133,-1.7132,-1.7113,-1.7114,-1.7114,0,0,0,0,0,0,0,0,0,0,0,0,0,-1.7202,-1.7202,-1.7206,-1.7206,-1.7206,-1.7186,-1.7186,-1.7186,-1.7135,-1.7134,-1.7133,-1.7131,-1.7113,-1.7114,-1.7115,0,0,0,0,0,0,0,0,0,0,0,0,0,-1.7195,-1.7202,-1.7206,-1.7178,-1.7175,-1.7186,-1.7186,-1.7186,-1.7135,-1.7134,-1.7132,-1.7131,-1.7113,-1.7114,-1.7115,-1.7152,0,0,-1.7117,-1.7117,0,0,0,0,0,0,0,0,-1.7195,-1.7195,-1.7182,-1.718,-1.7177,-1.7161,-1.7178,-1.7175,-1.7136,-1.7151,-1.7132,-1.713,-1.7131,-1.713,-1.713,-1.7151,-1.715,-1.7117,-1.7118,-1.7118,-1.7118,0,0,0,0,0,0,0,-1.7196,-1.7196,-1.7198,-1.7182,-1.7179,-1.7167,-1.7164,-1.7177,-1.715,-1.7149,-1.7145,-1.7144,-1.7129,-1.7129,-1.7129,-1.715,-1.7117,-1.7118,-1.7118,-1.7119,-1.7202,-1.7204,0,0,0,0,0,0,-1.72,-1.7197,-1.7199,-1.7198,-1.7182,-1.7168,-1.7165,-1.7168,-1.715,-1.7146,-1.7145,-1.7141,-1.7129,-1.7128,-1.7128,-1.7172,-1.7118,-1.7119,-1.7119,-1.72,-1.7202,-1.7204,0,0,0,0,0,0,-1.72,-1.7201,-1.72,-1.7196,-1.7195,-1.717,-1.7174,-1.7169,-1.7169,-1.7147,-1.7142,-1.715,-1.7128,-1.7127,-1.7147,-1.717,-1.7119,-1.712,-1.7198,-1.7201,-1.7203,-1.7258,0,0,0,0,0,0,-1.72,-1.7201,-1.7215,-1.7197,-1.7195,-1.7218,-1.7175,-1.7169,-1.717,-1.7165,-1.715,-1.7146,-1.7126,-1.7146,-1.7147,-1.717,-1.712,-1.7196,-1.7199,-1.7202,-1.7254,-1.7263,-1.727,0,0,0,0,0,-1.72,-1.7231,-1.7216,-1.7216,-1.7212,-1.7219,-1.7219,-1.7194,-1.7172,-1.7186,-1.7172,-1.7147,-1.7167,-1.7148,-1.715,-1.7173,-1.7194,-1.7198,-1.7202,-1.7251,-1.7261,-1.7269,0,0,0,0,0,0,-1.7254,-1.7229,-1.7211,-1.7237,-1.7231,-1.7211,-1.7227,-1.7206,-1.7206,-1.7201,-1.7172,-1.7169,-1.7193,-1.7185,-1.7164,-1.7209,-1.7177,-1.7181,-1.7213,-1.7223,-1.723,-1.7232,-1.7121,0,0,0,0,0,-1.7268,-1.7276,-1.7254,-1.7279,-1.7277,-1.7253,-1.7255,-1.7237,-1.7229,-1.7227,-1.7214,-1.7208,-1.7213,-1.7217,-1.7221,-1.7253,-1.7249,-1.727,-1.7277,-1.7284,-1.7288,-1.7305,-1.7314,-1.7217,-1.7217,-1.7217,0,0,-1.7299,-1.7286,-1.7293,-1.7289,-1.7282,-1.7292,-1.7251,-1.7262,-1.7269,-1.7229,-1.7246,-1.7237,-1.7228,-1.7254,-1.7265,-1.7248,-1.7314,-1.7289,-1.7294,-1.7295,-1.731,-1.7319,-1.7328,-1.722,-1.7219,-1.7219,0,0,-1.7359,-1.735,-1.737,-1.7364,-1.7354,-1.7338,-1.7343,-1.7326,-1.7318,-1.7335,-1.7305,-1.7313,-1.7322,-1.7317,-1.7316,-1.7375,-1.7353,-1.7377,-1.7418,-1.7435,-1.7442,-1.7449,-1.7471,-1.7479,-1.7382,-1.7382,-1.7382,0,-1.7399,-1.7411,-1.7384,-1.7397,-1.7397,-1.736,-1.738,-1.7376,-1.7368,-1.7368,-1.735,-1.7361,-1.7352,-1.7377,-1.7392,-1.7392,-1.7397,-1.7379,-1.7443,-1.745,-1.7455,-1.7476,-1.7484,-1.7385,-1.7385,-1.7384,-1.7384,0,-1.7461,-1.747,-1.7487,-1.748,-1.7481,-1.7498,-1.7474,-1.7479,-1.7461,-1.7447,-1.7465,-1.7454,-1.7454,-1.7459,-1.7441,-1.7481,-1.7471,-1.7448,-1.7416,-1.7468,-1.7487,-1.7495,-1.7389,-1.7388,-1.7387,-1.7387,0,0,-1.7555,-1.7532,-1.7539,-1.7535,-1.7521,-1.7528,-1.7543,-1.7543,-1.7549,-1.7544,-1.7557,-1.7566,-1.7545,-1.7543,-1.7525,-1.754,-1.7588,-1.7515,-1.7514,-1.753,-1.7633,-1.7651,-1.7661,-1.7573,-1.7574,-1.7575,-1.7634,0,-1.7613,-1.7638,-1.7613,-1.7643,-1.7652,-1.7617,-1.763,-1.7624,-1.7611,-1.7617,-1.7603,-1.761,-1.7581,-1.758,-1.7593,-1.758,-1.7609,-1.7575,-1.7586,-1.7586,-1.759,-1.767,-1.7689,-1.7746,-1.7641,-1.7642,-1.7643,0,-1.7684,-1.7682,-1.7713,-1.7697,-1.77,-1.7713,-1.7711,-1.7717,-1.7709,-1.7698,-1.7697,-1.7675,-1.7689,-1.7657,-1.7678,-1.7655,-1.7658,-1.7652,-1.7654,-1.7654,-1.7619,-1.7675,-1.7763,-1.7772,-1.7654,-1.7654,-1.7653,0,-1.7751,-1.7756,-1.7775,-1.7773,-1.7755,-1.7765,-1.7758,-1.7748,-1.775,-1.7749,-1.775,-1.775,-1.7751,-1.7753,-1.7731,-1.7709,-1.7755,-1.772,-1.7748,-1.7749,-1.776,-1.776,-1.7851,-1.776,-1.776,-1.776,-1.776,0,-1.7819,-1.7839,-1.7805,-1.7817,-1.784,-1.7811,-1.7834,-1.7824,-1.7815,-1.7825,-1.7795,-1.7805,-1.7775,-1.7782,-1.7765,-1.7786,-1.7786,-1.7779,-1.7774,-1.7782,-1.7783,-1.7785,-1.7781,-1.7762,-1.7762,-1.7761,-1.7761,0,-1.7898,-1.7875,-1.7894,-1.7875,-1.7871,-1.7888,-1.7872,-1.7883,-1.7868,-1.7881,-1.7883,-1.786,-1.7867,-1.7845,-1.7849,-1.7837,-1.7867,-1.7856,-1.787,-1.7867,-1.7896,-1.7894,-1.7992,-1.8004,-1.7905,-1.7906,-1.7907,0,-1.7943,-1.7958,-1.794,-1.7944,-1.7939,-1.7946,-1.7947,-1.792,-1.7923,-1.7915,-1.7927,-1.7931,-1.7933,-1.7946,-1.793,-1.7933,-1.7922,-1.7956,-1.7923,-1.793,-1.7924,-1.7924,-1.7926,-1.7964,-1.7965,-1.7966,-1.7967,0,-1.8026,-1.8014,-1.8017,-1.8017,-1.8019,-1.8018,-1.8014,-1.802,-1.799,-1.7996,-1.8002,-1.8004,-1.8007,-1.8012,-1.8011,-1.8004,-1.7982,-1.7977,-1.7984,-1.7993,-1.8001,-1.7998,-1.789,-1.7976,-1.7975,-1.7974,-1.7974,-1.7973,-1.809,-1.8102,-1.8091,-1.8096,-1.809,-1.8088,-1.8097,-1.8083,-1.8088,-1.8088,-1.8072,-1.8082,-1.8073,-1.807,-1.8066,-1.8074,-1.8058,-1.8067,-1.807,-1.8073,-1.8079,-1.7999,-1.8073,-1.8073,-1.8073,-1.8072,-1.8072,0,-1.8172,-1.8164,-1.8168,-1.8164,-1.8168,-1.8144,-1.8139,-1.8144,-1.8153,-1.8147,-1.815,-1.8157,-1.8162,-1.8147,-1.8149,-1.8159,-1.8148,-1.816,-1.816,-1.8159,-1.8092,-1.8086,-1.8169,-1.8169,-1.8169,-1.8169,-1.8169,-1.8169,-1.8216,-1.8235,-1.8222,-1.8238,-1.8229,-1.8238,-1.8238,-1.8235,-1.823,-1.824,-1.8244,-1.8233,-1.8223,-1.8225,-1.8229,-1.8224,-1.8227,-1.8243,-1.8235,-1.8173,-1.8164,-1.8155,-1.8149,-1.8244,-1.8244,-1.8301,-1.8302,-1.8302]},{"header":{"parameterUnit":"m.s-1","parameterCategory":1,"la1":30.2991,"la2":30.254,"lo1":-89.0895,"lo2":-89.0444,"dy":0.0017,"dx":0.0017,"nx":28,"ny":28,"refTime":"2024-06-12T21:00:00:Z","depth":0,"parameterNumber":3,"parameterNumberName":"V-component_of_WINDS"},"data":[0,0,0,0,0,0,0,0,0,0,0,0,0,0,0,0,0,0,0,0,0,0,0,0,0,0,0,0,0,0,0,0,0,0,0,0,0,0,0,0,0,0,0,0,0,0,0,0,0,0,0,0,0,0,0,0,0,0,-2.5465,-2.5466,0,-2.5481,-2.5481,-2.5482,-2.5458,-2.5457,-2.5456,-2.5455,-2.547,-2.5471,-2.5472,0,0,0,0,0,0,0,0,0,0,0,0,0,-2.5413,-2.5414,-2.5465,-2.5466,-2.5466,-2.5481,-2.5481,-2.5482,-2.5458,-2.5457,-2.5456,-2.5455,-2.5469,-2.5471,-2.5472,0,0,0,0,0,0,0,0,0,0,0,0,0,-2.5433,-2.5414,-2.5465,-2.5456,-2.5455,-2.5481,-2.5481,-2.5482,-2.5458,-2.5457,-2.5455,-2.5454,-2.5469,-2.5471,-2.5472,-2.5508,0,0,-2.5478,-2.5478,0,0,0,0,0,0,0,0,-2.5432,-2.5435,-2.5457,-2.5457,-2.5456,-2.5466,-2.5468,-2.549,-2.5458,-2.5457,-2.5455,-2.5454,-2.547,-2.5471,-2.5477,-2.5509,-2.5509,-2.5478,-2.5479,-2.548,-2.548,0,0,0,0,0,0,0,-2.543,-2.5434,-2.5472,-2.5457,-2.5457,-2.545,-2.5452,-2.5472,-2.547,-2.5457,-2.5455,-2.5457,-2.5469,-2.5475,-2.5477,-2.551,-2.5478,-2.5479,-2.548,-2.5481,-2.5571,-2.5573,0,0,0,0,0,0,-2.543,-2.5433,-2.5471,-2.5472,-2.544,-2.5452,-2.5454,-2.5464,-2.547,-2.5469,-2.5458,-2.5456,-2.5473,-2.5475,-2.5477,-2.5519,-2.548,-2.5481,-2.5482,-2.557,-2.5572,-2.5573,0,0,0,0,0,0,-2.5429,-2.5434,-2.547,-2.5452,-2.5456,-2.5454,-2.5466,-2.5465,-2.5471,-2.5471,-2.547,-2.5465,-2.5472,-2.5475,-2.5501,-2.552,-2.5482,-2.5484,-2.5568,-2.557,-2.5572,-2.5604,0,0,0,0,0,0,-2.5428,-2.5434,-2.5448,-2.5453,-2.5457,-2.5494,-2.5467,-2.5466,-2.5475,-2.5472,-2.5477,-2.5477,-2.5471,-2.5498,-2.5502,-2.5521,-2.5485,-2.5567,-2.5569,-2.5572,-2.5601,-2.5607,-2.5612,0,0,0,0,0,-2.5426,-2.5456,-2.5449,-2.5453,-2.5475,-2.5495,-2.5498,-2.5491,-2.5476,-2.549,-2.549,-2.5477,-2.5517,-2.5501,-2.5506,-2.5525,-2.5565,-2.5569,-2.5571,-2.5599,-2.5606,-2.5612,0,0,0,0,0,0,-2.5453,-2.5456,-2.5448,-2.5481,-2.5488,-2.5491,-2.5509,-2.5499,-2.551,-2.5507,-2.5497,-2.5499,-2.5526,-2.5528,-2.5511,-2.556,-2.5538,-2.5543,-2.5558,-2.5564,-2.5569,-2.5569,-2.5487,0,0,0,0,0,-2.5463,-2.548,-2.5481,-2.551,-2.5514,-2.5511,-2.5519,-2.5513,-2.552,-2.5523,-2.5525,-2.5531,-2.5545,-2.5555,-2.5568,-2.5601,-2.5602,-2.5617,-2.5622,-2.5626,-2.563,-2.5648,-2.5654,-2.5583,-2.5583,-2.5583,0,0,-2.5483,-2.5487,-2.5498,-2.5515,-2.552,-2.5537,-2.5513,-2.5533,-2.5545,-2.5526,-2.555,-2.5552,-2.5558,-2.5588,-2.5601,-2.5591,-2.565,-2.563,-2.5634,-2.5635,-2.5651,-2.5658,-2.5664,-2.5585,-2.5585,-2.5584,0,0,-2.5529,-2.5534,-2.5558,-2.5563,-2.5571,-2.5569,-2.5574,-2.5579,-2.5579,-2.5604,-2.559,-2.5604,-2.5628,-2.5634,-2.564,-2.5687,-2.5676,-2.5691,-2.5719,-2.5736,-2.5742,-2.5746,-2.5763,-2.5769,-2.5695,-2.5695,-2.5695,0,-2.5553,-2.5579,-2.5571,-2.5592,-2.5599,-2.5583,-2.5607,-2.5612,-2.5624,-2.5629,-2.5617,-2.5647,-2.5651,-2.5681,-2.5693,-2.5698,-2.5704,-2.5691,-2.5741,-2.5746,-2.5751,-2.5767,-2.5773,-2.5697,-2.5697,-2.5697,-2.5696,0,-2.5608,-2.5626,-2.5644,-2.5657,-2.5666,-2.5688,-2.5683,-2.5694,-2.5687,-2.5685,-2.571,-2.5714,-2.5727,-2.5734,-2.5727,-2.5763,-2.5756,-2.5743,-2.5721,-2.576,-2.5774,-2.578,-2.57,-2.5699,-2.5699,-2.5698,0,0,-2.5672,-2.5679,-2.5686,-2.5691,-2.5698,-2.5712,-2.5732,-2.5746,-2.5755,-2.5763,-2.578,-2.5801,-2.5789,-2.5795,-2.5789,-2.5804,-2.5841,-2.5789,-2.5789,-2.5798,-2.5881,-2.5891,-2.5899,-2.5833,-2.5834,-2.5835,-2.5881,0,-2.5718,-2.5755,-2.5748,-2.5783,-2.58,-2.5784,-2.5802,-2.5808,-2.5807,-2.582,-2.5819,-2.5834,-2.5816,-2.582,-2.5834,-2.5834,-2.5858,-2.583,-2.5849,-2.585,-2.5848,-2.5906,-2.5917,-2.596,-2.5886,-2.5887,-2.5888,0,-2.5776,-2.5787,-2.5824,-2.5829,-2.5835,-2.5852,-2.5863,-2.5876,-2.5882,-2.588,-2.5888,-2.5878,-2.5898,-2.5876,-2.5904,-2.5885,-2.5892,-2.5893,-2.5894,-2.5896,-2.5871,-2.591,-2.5973,-2.598,-2.5897,-2.5896,-2.5896,0,-2.5819,-2.5843,-2.5868,-2.5873,-2.5879,-2.589,-2.5893,-2.5898,-2.5906,-2.5916,-2.5921,-2.5933,-2.594,-2.5949,-2.5942,-2.5927,-2.5971,-2.5948,-2.597,-2.597,-2.598,-2.5979,-2.6046,-2.5984,-2.5984,-2.5984,-2.5984,0,-2.5871,-2.5895,-2.5888,-2.5903,-2.5929,-2.592,-2.5946,-2.5946,-2.5951,-2.5966,-2.5953,-2.5967,-2.5958,-2.5971,-2.5966,-2.5989,-2.5992,-2.5991,-2.599,-2.5993,-2.5993,-2.5997,-2.5994,-2.5985,-2.5985,-2.5985,-2.5985,0,-2.5924,-2.592,-2.5947,-2.595,-2.5951,-2.597,-2.5972,-2.5986,-2.5984,-2.6003,-2.6007,-2.6003,-2.6018,-2.6013,-2.6029,-2.6025,-2.6055,-2.605,-2.6053,-2.6052,-2.6074,-2.6072,-2.6146,-2.6155,-2.6087,-2.6088,-2.6088,0,-2.5958,-2.5975,-2.598,-2.5989,-2.5993,-2.6008,-2.6017,-2.6009,-2.6018,-2.6026,-2.6039,-2.6053,-2.6064,-2.6088,-2.6087,-2.6099,-2.6093,-2.6118,-2.6095,-2.6097,-2.6094,-2.6093,-2.6095,-2.6123,-2.6124,-2.6125,-2.6125,0,-2.6018,-2.6015,-2.6028,-2.604,-2.605,-2.6059,-2.6067,-2.6075,-2.6068,-2.6079,-2.6094,-2.6102,-2.6118,-2.6132,-2.6143,-2.6145,-2.6134,-2.6132,-2.6138,-2.6141,-2.6143,-2.6142,-2.6066,-2.6131,-2.613,-2.613,-2.613,-2.6129,-2.6062,-2.6077,-2.6083,-2.6097,-2.6102,-2.611,-2.6123,-2.6123,-2.6135,-2.6148,-2.6142,-2.616,-2.6165,-2.6178,-2.6182,-2.6195,-2.6185,-2.6193,-2.6196,-2.6198,-2.6201,-2.614,-2.6197,-2.6197,-2.6197,-2.6196,-2.6196,0,-2.6122,-2.6124,-2.6138,-2.6149,-2.6161,-2.6149,-2.6157,-2.6167,-2.6183,-2.6189,-2.6199,-2.6217,-2.623,-2.6229,-2.6241,-2.6252,-2.6247,-2.6255,-2.6255,-2.6255,-2.6209,-2.6203,-2.6259,-2.6259,-2.6259,-2.6259,-2.6259,-2.6259,-2.6154,-2.6178,-2.6176,-2.6203,-2.6205,-2.6222,-2.6228,-2.6234,-2.6239,-2.6259,-2.627,-2.627,-2.6273,-2.6285,-2.6296,-2.6295,-2.6301,-2.6311,-2.6308,-2.6265,-2.6259,-2.6253,-2.6247,-2.6312,-2.6312,-2.6354,-2.6354,-2.6355]}]]